Location: Choisy
(48.7685°N, 2.4187°E)
Time: 09:45:59
(UTC+00:00)

Envisat - Pass Details

Date: 28 February 2024
Orbit: 762 x 764 km, 98.3° (Epoch: 21 April)

Event Time Altitude Azimuth Distance (km) Brightness Sun altitude
Rises 03:14:54 0° 15° (NNE) 3,244 6.8 -32.9°
Reaches altitude 10° 03:17:14 10° 18° (NNE) 2,313 6.0 -32.6°
Enters shadow 03:20:39 42° 31° (NNE) 1,080 4.0 -32.1°
